| time (UTC) | temp C | wind direction | speed KPH | gust KPH | rain 1hr cm | rain 24hr cm | rain mn cm | humidity % | barometer mb |
| 20260507033828 | 18 | 54 | 4.8 | 9.7 | 0.00 | 0.00 | 0.00 | 70 | 1018.1 |
| 20260507033328 | 18 | 19 | 3.2 | 9.7 | 0.00 | 0.00 | 0.00 | 69 | 1018.0 |
| 20260507032328 | 18 | 16 | 3.2 | 8.0 | 0.00 | 0.00 | 0.00 | 68 | 1017.9 |
| 20260507031328 | 19 | 44 | 0.0 | 3.2 | 0.00 | 0.00 | 0.00 | 67 | 1017.6 |
| 20260507030828 | 19 | 44 | 1.6 | 3.2 | 0.00 | 0.00 | 0.00 | 66 | 1017.6 |
| 20260507030328 | 19 | 351 | 1.6 | 4.8 | 0.00 | 0.00 | 0.00 | 66 | 1017.6 |
| 20260507025828 | 19 | 2 | 3.2 | 8.0 | 0.00 | 0.00 | 0.00 | 66 | 1017.5 |
| 20260507025328 | 20 | 0 | 3.2 | 8.0 | 0.00 | 0.00 | 0.00 | 66 | 1017.5 |
| 20260507024828 | 20 | 21 | 3.2 | 4.8 | 0.00 | 0.00 | 0.00 | 65 | 1017.3 |
| 20260507024329 | 20 | 359 | 1.6 | 4.8 | 0.00 | 0.00 | 0.00 | 65 | 1017.2 |
| 20260507023828 | 20 | 49 | 4.8 | 8.0 | 0.00 | 0.00 | 0.00 | 64 | 1017.2 |
| 20260507023329 | 20 | 2 | 3.2 | 8.0 | 0.00 | 0.00 | 0.00 | 64 | 1017.1 |
| 20260507022828 | 20 | 8 | 4.8 | 11.3 | 0.00 | 0.00 | 0.00 | 63 | 1017.1 |
| 20260507022329 | 20 | 28 | 3.2 | 8.0 | 0.00 | 0.00 | 0.00 | 63 | 1017.1 |
| 20260507021828 | 20 | 10 | 3.2 | 8.0 | 0.00 | 0.00 | 0.00 | 62 | 1017.1 |
| 20260507021328 | 21 | 329 | 3.2 | 11.3 | 0.00 | 0.00 | 0.00 | 62 | 1017.0 |
| 20260507020328 | 21 | 351 | 3.2 | 11.3 | 0.00 | 0.00 | 0.00 | 60 | 1016.9 |
| 20260507015828 | 21 | 38 | 4.8 | 12.9 | 0.00 | 0.00 | 0.00 | 59 | 1017.0 |
| 20260507015329 | 21 | 14 | 6.4 | 11.3 | 0.00 | 0.00 | 0.00 | 58 | 1017.0 |
| 20260507014828 | 21 | 11 | 4.8 | 16.1 | 0.00 | 0.00 | 0.00 | 57 | 1016.9 |
| 20260507014328 | 21 | 32 | 4.8 | 12.9 | 0.00 | 0.00 | 0.00 | 57 | 1016.9 |
| 20260507013328 | 22 | 27 | 4.8 | 11.3 | 0.00 | 0.00 | 0.00 | 56 | 1016.8 |
| 20260507012829 | 22 | 6 | 8.0 | 12.9 | 0.00 | 0.00 | 0.00 | 56 | 1016.7 |
| 20260507012328 | 22 | 25 | 4.8 | 16.1 | 0.00 | 0.00 | 0.00 | 56 | 1016.7 |
| 20260507011328 | 22 | 31 | 3.2 | 12.9 | 0.00 | 0.00 | 0.00 | 55 | 1016.6 |
| 20260507010828 | 22 | 42 | 8.0 | 19.3 | 0.00 | 0.00 | 0.00 | 55 | 1016.6 |
| 20260507010328 | 22 | 343 | 3.2 | 11.3 | 0.00 | 0.00 | 0.00 | 55 | 1016.6 |
| 20260507005828 | 22 | 44 | 4.8 | 11.3 | 0.00 | 0.00 | 0.00 | 54 | 1016.6 |
| 20260507005328 | 22 | 357 | 4.8 | 12.9 | 0.00 | 0.00 | 0.00 | 54 | 1016.6 |
| 20260507004829 | 22 | 48 | 6.4 | 20.9 | 0.00 | 0.00 | 0.00 | 54 | 1016.6 |
| 20260507004328 | 23 | 27 | 6.4 | 12.9 | 0.00 | 0.00 | 0.00 | 53 | 1016.6 |
| 20260507003829 | 23 | 343 | 4.8 | 12.9 | 0.00 | 0.00 | 0.00 | 53 | 1016.6 |
| 20260507003329 | 23 | 22 | 4.8 | 11.3 | 0.00 | 0.00 | 0.00 | 53 | 1016.5 |
| 20260507002828 | 23 | 28 | 4.8 | 19.3 | 0.00 | 0.00 | 0.00 | 53 | 1016.5 |
| 20260507002328 | 23 | 339 | 4.8 | 16.1 | 0.00 | 0.00 | 0.00 | 53 | 1016.5 |
| 20260507001829 | 23 | 348 | 6.4 | 12.9 | 0.00 | 0.00 | 0.00 | 53 | 1016.5 |
| 20260507001329 | 23 | 335 | 4.8 | 19.3 | 0.00 | 0.00 | 0.00 | 53 | 1016.5 |
| 20260507000828 | 23 | 357 | 4.8 | 12.9 | 0.00 | 0.00 | 0.00 | 52 | 1016.5 |
| 20260507000328 | 23 | 11 | 4.8 | 11.3 | 0.00 | 0.00 | 0.00 | 53 | 1016.5 |
| 20260506235828 | 23 | 338 | 8.0 | 14.5 | 0.00 | 0.00 | 0.00 | 52 | 1016.5 |
| 20260506235329 | 23 | 345 | 8.0 | 14.5 | 0.00 | 0.00 | 0.00 | 52 | 1016.5 |
| 20260506234828 | 23 | 12 | 4.8 | 19.3 | 0.00 | 0.00 | 0.00 | 52 | 1016.5 |
| 20260506234328 | 23 | 352 | 4.8 | 16.1 | 0.00 | 0.00 | 0.00 | 52 | 1016.5 |
| 20260506233828 | 23 | 2 | 4.8 | 12.9 | 0.00 | 0.00 | 0.00 | 52 | 1016.5 |
| 20260506232328 | 23 | 10 | 6.4 | 16.1 | 0.00 | 0.00 | 0.00 | 51 | 1016.5 |
| 20260506231828 | 23 | 336 | 8.0 | 12.9 | 0.00 | 0.00 | 0.00 | 52 | 1016.6 |
| 20260506231328 | 23 | 13 | 6.4 | 14.5 | 0.00 | 0.00 | 0.00 | 52 | 1016.6 |
| 20260506230828 | 23 | 6 | 4.8 | 22.5 | 0.00 | 0.00 | 0.00 | 52 | 1016.7 |
| 20260506230328 | 23 | 37 | 6.4 | 22.5 | 0.00 | 0.00 | 0.00 | 52 | 1016.7 |
| 20260506225828 | 23 | 54 | 8.0 | 19.3 | 0.00 | 0.00 | 0.00 | 52 | 1016.8 |
| 20260506225329 | 23 | 348 | 8.0 | 19.3 | 0.00 | 0.00 | 0.00 | 51 | 1016.9 |
| 20260506224828 | 23 | 337 | 4.8 | 11.3 | 0.00 | 0.00 | 0.00 | 51 | 1016.7 |
| 20260506224328 | 23 | 17 | 3.2 | 16.1 | 0.00 | 0.00 | 0.00 | 51 | 1016.8 |
| 20260506223828 | 23 | 332 | 4.8 | 14.5 | 0.00 | 0.00 | 0.00 | 51 | 1016.9 |
| 20260506223328 | 23 | 333 | 1.6 | 11.3 | 0.00 | 0.00 | 0.00 | 52 | 1017.0 |
| 20260506222829 | 23 | 274 | 3.2 | 12.9 | 0.00 | 0.00 | 0.00 | 49 | 1017.0 |
| 20260506222328 | 23 | 336 | 4.8 | 12.9 | 0.00 | 0.00 | 0.00 | 51 | 1017.1 |
| 20260506221828 | 23 | 306 | 4.8 | 11.3 | 0.00 | 0.00 | 0.00 | 51 | 1017.1 |
| 20260506220828 | 23 | 17 | 4.8 | 11.3 | 0.00 | 0.00 | 0.00 | 51 | 1017.2 |
| 20260506220328 | 23 | 349 | 4.8 | 11.3 | 0.00 | 0.00 | 0.00 | 51 | 1017.3 |
| 20260506215828 | 23 | 261 | 3.2 | 4.8 | 0.00 | 0.00 | 0.00 | 53 | 1017.3 |
| 20260506215328 | 22 | 45 | 4.8 | 11.3 | 0.00 | 0.00 | 0.00 | 52 | 1017.5 |
| 20260506214828 | 22 | 65 | 6.4 | 12.9 | 0.00 | 0.00 | 0.00 | 52 | 1017.6 |
| 20260506214328 | 22 | 38 | 1.6 | 12.9 | 0.00 | 0.00 | 0.00 | 52 | 1017.6 |
| 20260506213828 | 22 | 312 | 8.0 | 19.3 | 0.00 | 0.00 | 0.00 | 51 | 1017.7 |
| 20260506212328 | 22 | 4 | 3.2 | 14.5 | 0.00 | 0.00 | 0.00 | 53 | 1017.9 |
| 20260506211828 | 22 | 337 | 6.4 | 16.1 | 0.00 | 0.00 | 0.00 | 54 | 1018.0 |
| 20260506211328 | 22 | 331 | 4.8 | 9.7 | 0.00 | 0.00 | 0.00 | 53 | 1018.1 |
| 20260506205828 | 22 | 44 | 4.8 | 11.3 | 0.00 | 0.00 | 0.00 | 54 | 1018.1 |
| 20260506205328 | 21 | 355 | 4.8 | 11.3 | 0.00 | 0.00 | 0.00 | 54 | 1018.2 |
| 20260506204828 | 21 | 359 | 8.0 | 16.1 | 0.00 | 0.00 | 0.00 | 55 | 1018.2 |
| 20260506203828 | 21 | 348 | 4.8 | 14.5 | 0.00 | 0.00 | 0.00 | 56 | 1018.2 |
| 20260506203328 | 21 | 43 | 8.0 | 12.9 | 0.00 | 0.00 | 0.00 | 56 | 1018.3 |
| 20260506201828 | 21 | 355 | 8.0 | 19.3 | 0.00 | 0.00 | 0.00 | 56 | 1018.6 |
| 20260506200828 | 21 | 25 | 4.8 | 11.3 | 0.00 | 0.00 | 0.00 | 57 | 1018.7 |
| 20260506200328 | 21 | 0 | 3.2 | 19.3 | 0.00 | 0.00 | 0.00 | 57 | 1018.7 |
| 20260506195828 | 20 | 336 | 3.2 | 11.3 | 0.00 | 0.00 | 0.00 | 58 | 1018.7 |
| 20260506195328 | 20 | 294 | 4.8 | 11.3 | 0.00 | 0.00 | 0.00 | 58 | 1018.8 |
| 20260506194828 | 20 | 334 | 3.2 | 9.7 | 0.00 | 0.00 | 0.00 | 58 | 1018.8 |
| 20260506194328 | 20 | 328 | 6.4 | 16.1 | 0.00 | 0.00 | 0.00 | 58 | 1018.8 |
| 20260506193829 | 20 | 297 | 6.4 | 11.3 | 0.00 | 0.00 | 0.00 | 59 | 1018.8 |
| 20260506191828 | 19 | 36 | 3.2 | 16.1 | 0.00 | 0.00 | 0.00 | 61 | 1019.1 |
| 20260506191328 | 19 | 324 | 3.2 | 8.0 | 0.00 | 0.00 | 0.00 | 62 | 1019.2 |
| 20260506190828 | 19 | 248 | 1.6 | 9.7 | 0.00 | 0.00 | 0.00 | 62 | 1019.2 |
| 20260506190328 | 19 | 291 | 4.8 | 9.7 | 0.00 | 0.00 | 0.00 | 62 | 1019.2 |
| 20260506185828 | 18 | 344 | 3.2 | 11.3 | 0.00 | 0.00 | 0.00 | 63 | 1019.2 |
| 20260506185328 | 18 | 32 | 4.8 | 9.7 | 0.00 | 0.00 | 0.00 | 64 | 1019.3 |
| 20260506184829 | 18 | 20 | 3.2 | 11.3 | 0.00 | 0.00 | 0.00 | 64 | 1019.3 |
| 20260506183828 | 18 | 17 | 4.8 | 9.7 | 0.00 | 0.00 | 0.00 | 65 | 1019.3 |
| 20260506183328 | 18 | 41 | 8.0 | 9.7 | 0.00 | 0.00 | 0.00 | 67 | 1019.4 |
| 20260506182828 | 18 | 32 | 3.2 | 8.0 | 0.00 | 0.00 | 0.00 | 68 | 1019.4 |
| 20260506182328 | 17 | 195 | 3.2 | 4.8 | 0.00 | 0.00 | 0.00 | 68 | 1019.5 |
| 20260506181828 | 17 | 11 | 6.4 | 9.7 | 0.00 | 0.00 | 0.00 | 67 | 1019.6 |
| 20260506181328 | 17 | 314 | 8.0 | 11.3 | 0.00 | 0.00 | 0.00 | 67 | 1019.5 |
| 20260506180328 | 17 | 5 | 1.6 | 4.8 | 0.00 | 0.00 | 0.00 | 69 | 1019.6 |
| 20260506175827 | 17 | 58 | 3.2 | 8.0 | 0.00 | 0.00 | 0.00 | 69 | 1019.6 |
| 20260506174828 | 17 | 320 | 3.2 | 9.7 | 0.00 | 0.00 | 0.00 | 70 | 1019.6 |
| 20260506174328 | 16 | 275 | 3.2 | 9.7 | 0.00 | 0.00 | 0.00 | 70 | 1019.6 |
| 20260506173828 | 16 | 86 | 1.6 | 8.0 | 0.00 | 0.00 | 0.00 | 71 | 1019.6 |
| 20260506172328 | 16 | 344 | 1.6 | 8.0 | 0.00 | 0.00 | 0.00 | 72 | 1019.7 |
| 20260506170828 | 16 | 238 | 3.2 | 9.7 | 0.00 | 0.00 | 0.00 | 76 | 1019.8 |
| 20260506165828 | 15 | 331 | 3.2 | 8.0 | 0.00 | 0.00 | 0.00 | 77 | 1019.8 |
| 20260506165328 | 15 | 267 | 1.6 | 4.8 | 0.00 | 0.00 | 0.00 | 77 | 1019.8 |
| 20260506164828 | 15 | 30 | 1.6 | 8.0 | 0.00 | 0.00 | 0.00 | 77 | 1019.9 |
| 20260506163328 | 15 | 322 | 3.2 | 9.7 | 0.00 | 0.00 | 0.00 | 78 | 1019.9 |
| 20260506162828 | 15 | 0 | 3.2 | 11.3 | 0.00 | 0.00 | 0.00 | 78 | 1019.9 |
| 20260506161828 | 15 | 345 | 3.2 | 9.7 | 0.00 | 0.00 | 0.00 | 78 | 1019.9 |
| 20260506160828 | 15 | 344 | 1.6 | 8.0 | 0.00 | 0.00 | 0.00 | 79 | 1019.9 |
| 20260506160328 | 15 | 6 | 3.2 | 8.0 | 0.00 | 0.00 | 0.00 | 80 | 1019.8 |
| 20260506155828 | 14 | 292 | 0.0 | 4.8 | 0.00 | 0.00 | 0.00 | 81 | 1019.9 |
| 20260506154828 | 14 | 349 | 3.2 | 4.8 | 0.00 | 0.00 | 0.00 | 80 | 1019.9 |
| 20260506154328 | 14 | 321 | 4.8 | 8.0 | 0.00 | 0.00 | 0.00 | 80 | 1019.9 |
| 20260506153328 | 14 | 313 | 3.2 | 4.8 | 0.00 | 0.00 | 0.00 | 81 | 1019.9 |
| 20260506152828 | 14 | 317 | 1.6 | 8.0 | 0.00 | 0.00 | 0.00 | 81 | 1019.9 |
| 20260506152328 | 13 | 359 | 1.6 | 4.8 | 0.00 | 0.00 | 0.00 | 82 | 1019.8 |
| 20260506151828 | 13 | 316 | 1.6 | 4.8 | 0.00 | 0.00 | 0.00 | 82 | 1019.9 |
| 20260506151328 | 13 | 333 | 1.6 | 4.8 | 0.00 | 0.00 | 0.00 | 83 | 1019.9 |
| 20260506150828 | 13 | 326 | 1.6 | 3.2 | 0.00 | 0.00 | 0.00 | 82 | 1019.9 |
| 20260506150328 | 13 | 318 | 3.2 | 8.0 | 0.00 | 0.00 | 0.00 | 82 | 1019.9 |
| 20260506145828 | 13 | 320 | 0.0 | 1.6 | 0.00 | 0.00 | 0.00 | 82 | 1019.9 |
| 20260506145328 | 13 | 285 | 1.6 | 4.8 | 0.00 | 0.00 | 0.00 | 82 | 1019.9 |
| 20260506144828 | 13 | 309 | 1.6 | 3.2 | 0.00 | 0.00 | 0.00 | 82 | 1019.9 |
| 20260506144328 | 13 | 0 | 1.6 | 4.8 | 0.00 | 0.00 | 0.00 | 82 | 1019.9 |
| 20260506143828 | 13 | 311 | 0.0 | 3.2 | 0.00 | 0.00 | 0.00 | 83 | 1019.9 |
| 20260506143328 | 13 | 331 | 1.6 | 4.8 | 0.00 | 0.00 | 0.00 | 83 | 1019.9 |
| 20260506142828 | 13 | 314 | 1.6 | 4.8 | 0.00 | 0.00 | 0.00 | 83 | 1019.8 |
| 20260506142328 | 13 | 303 | 0.0 | 3.2 | 0.00 | 0.00 | 0.00 | 83 | 1019.8 |
| 20260506141828 | 13 | 314 | 0.0 | 4.8 | 0.00 | 0.00 | 0.00 | 83 | 1019.8 |
| 20260506141328 | 13 | 328 | 1.6 | 4.8 | 0.00 | 0.00 | 0.00 | 83 | 1019.8 |
| 20260506140828 | 13 | 307 | 1.6 | 4.8 | 0.00 | 0.00 | 0.00 | 83 | 1019.8 |
| 20260506135827 | 13 | 326 | 1.6 | 4.8 | 0.00 | 0.00 | 0.00 | 83 | 1019.6 |
| 20260506135328 | 13 | 325 | 0.0 | 3.2 | 0.00 | 0.00 | 0.00 | 83 | 1019.4 |
| 20260506133827 | 13 | 306 | 0.0 | 3.2 | 0.00 | 0.00 | 0.00 | 83 | 1019.2 |
| 20260506133328 | 13 | 326 | 0.0 | 4.8 | 0.00 | 0.00 | 0.00 | 83 | 1019.1 |
| 20260506132828 | 13 | 305 | 1.6 | 3.2 | 0.00 | 0.00 | 0.00 | 83 | 1019.0 |
| 20260506132328 | 13 | 322 | 1.6 | 3.2 | 0.00 | 0.00 | 0.00 | 83 | 1019.0 |
| 20260506131828 | 13 | 302 | 0.0 | 1.6 | 0.00 | 0.00 | 0.00 | 83 | 1018.9 |
| 20260506130828 | 13 | 302 | 0.0 | 1.6 | 0.00 | 0.00 | 0.00 | 83 | 1018.9 |
| 20260506130328 | 13 | 305 | 0.0 | 1.6 | 0.00 | 0.00 | 0.00 | 82 | 1018.9 |
| 20260506125828 | 13 | 305 | 0.0 | 3.2 | 0.00 | 0.00 | 0.00 | 82 | 1018.8 |
| 20260506125328 | 13 | 305 | 0.0 | 3.2 | 0.00 | 0.00 | 0.00 | 82 | 1018.8 |
| 20260506124828 | 13 | 305 | 0.0 | 4.8 | 0.00 | 0.00 | 0.00 | 82 | 1018.8 |
| 20260506124328 | 13 | 324 | 1.6 | 3.2 | 0.00 | 0.00 | 0.00 | 82 | 1018.8 |
| 20260506123328 | 13 | 311 | 1.6 | 3.2 | 0.00 | 0.00 | 0.00 | 82 | 1018.8 |
| 20260506122828 | 13 | 0 | 0.0 | 1.6 | 0.00 | 0.00 | 0.00 | 82 | 1018.8 |
| 20260506122328 | 13 | 0 | 0.0 | 1.6 | 0.00 | 0.00 | 0.00 | 82 | 1018.8 |
| 20260506121828 | 13 | 0 | 0.0 | 3.2 | 0.00 | 0.00 | 0.00 | 82 | 1018.7 |
| 20260506121328 | 13 | 0 | 1.6 | 3.2 | 0.00 | 0.00 | 0.00 | 82 | 1018.7 |
| 20260506120828 | 13 | 0 | 1.6 | 3.2 | 0.00 | 0.00 | 0.00 | 82 | 1018.7 |
| 20260506115827 | 13 | 0 | 0.0 | 1.6 | 0.00 | 0.00 | 0.00 | 82 | 1018.5 |
| 20260506115328 | 13 | 0 | 0.0 | 1.6 | 0.00 | 0.00 | 0.00 | 82 | 1018.5 |
| 20260506114328 | 13 | 0 | 0.0 | 0.0 | 0.00 | 0.00 | 0.00 | 82 | 1018.4 |
| 20260506113828 | 13 | 0 | 0.0 | 1.6 | 0.00 | 0.00 | 0.00 | 82 | 1018.4 |
| 20260506113328 | 13 | 0 | 0.0 | 0.0 | 0.00 | 0.00 | 0.00 | 82 | 1018.4 |
| 20260506112828 | 13 | 0 | 0.0 | 0.0 | 0.00 | 0.00 | 0.00 | 82 | 1018.4 |
| 20260506112328 | 13 | 0 | 0.0 | 0.0 | 0.00 | 0.00 | 0.00 | 82 | 1018.3 |
| 20260506111828 | 13 | 0 | 0.0 | 0.0 | 0.00 | 0.00 | 0.00 | 81 | 1018.3 |
| 20260506111328 | 13 | 0 | 0.0 | 0.0 | 0.00 | 0.00 | 0.00 | 81 | 1018.3 |
| 20260506110828 | 13 | 0 | 0.0 | 1.6 | 0.00 | 0.00 | 0.00 | 81 | 1018.3 |
| 20260506110327 | 13 | 0 | 0.0 | 1.6 | 0.00 | 0.00 | 0.00 | 81 | 1018.3 |
| 20260506105328 | 13 | 0 | 0.0 | 0.0 | 0.00 | 0.00 | 0.00 | 81 | 1018.2 |
| 20260506104328 | 13 | 0 | 0.0 | 0.0 | 0.00 | 0.00 | 0.00 | 82 | 1018.2 |
| 20260506103328 | 13 | 0 | 0.0 | 0.0 | 0.00 | 0.00 | 0.00 | 81 | 1018.2 |
| 20260506102828 | 13 | 0 | 0.0 | 0.0 | 0.00 | 0.00 | 0.00 | 81 | 1018.2 |
| 20260506102328 | 13 | 0 | 0.0 | 0.0 | 0.00 | 0.00 | 0.00 | 81 | 1018.2 |
| 20260506101328 | 13 | 0 | 0.0 | 0.0 | 0.00 | 0.00 | 0.00 | 81 | 1018.2 |
| 20260506100828 | 13 | 0 | 0.0 | 0.0 | 0.00 | 0.00 | 0.00 | 81 | 1018.2 |
| 20260506095327 | 14 | 0 | 0.0 | 0.0 | 0.00 | 0.00 | 0.00 | 80 | 1018.2 |
| 20260506094828 | 14 | 0 | 0.0 | 0.0 | 0.00 | 0.00 | 0.00 | 80 | 1018.2 |
| 20260506094328 | 14 | 0 | 0.0 | 0.0 | 0.00 | 0.00 | 0.00 | 80 | 1018.2 |
| 20260506093829 | 14 | 0 | 0.0 | 0.0 | 0.00 | 0.00 | 0.00 | 80 | 1018.2 |
| 20260506093328 | 14 | 0 | 0.0 | 0.0 | 0.00 | 0.00 | 0.00 | 80 | 1018.3 |
| 20260506092828 | 14 | 0 | 0.0 | 1.6 | 0.00 | 0.00 | 0.00 | 80 | 1018.3 |
| 20260506092328 | 14 | 0 | 0.0 | 0.0 | 0.00 | 0.00 | 0.00 | 79 | 1018.3 |
| 20260506091828 | 14 | 0 | 0.0 | 0.0 | 0.00 | 0.00 | 0.00 | 78 | 1018.3 |
| 20260506091328 | 14 | 0 | 0.0 | 1.6 | 0.00 | 0.00 | 0.00 | 78 | 1018.3 |
| 20260506090828 | 14 | 30 | 0.0 | 3.2 | 0.00 | 0.00 | 0.00 | 78 | 1018.3 |
| 20260506090328 | 14 | 316 | 0.0 | 1.6 | 0.00 | 0.00 | 0.00 | 78 | 1018.2 |
| 20260506085827 | 14 | 316 | 0.0 | 1.6 | 0.00 | 0.00 | 0.00 | 78 | 1018.2 |
| 20260506085328 | 14 | 316 | 0.0 | 1.6 | 0.00 | 0.00 | 0.00 | 78 | 1018.2 |
| 20260506084328 | 14 | 316 | 0.0 | 0.0 | 0.00 | 0.00 | 0.00 | 78 | 1018.2 |
| 20260506083828 | 14 | 316 | 0.0 | 0.0 | 0.00 | 0.00 | 0.00 | 78 | 1018.2 |
| 20260506082828 | 14 | 316 | 0.0 | 1.6 | 0.00 | 0.00 | 0.00 | 77 | 1018.2 |
| 20260506082328 | 14 | 337 | 0.0 | 3.2 | 0.00 | 0.00 | 0.00 | 77 | 1018.3 |
| 20260506081828 | 14 | 342 | 1.6 | 3.2 | 0.00 | 0.00 | 0.00 | 77 | 1018.3 |
| 20260506081328 | 14 | 342 | 1.6 | 4.8 | 0.00 | 0.00 | 0.00 | 77 | 1018.3 |
| 20260506080827 | 14 | 0 | 0.0 | 1.6 | 0.00 | 0.00 | 0.00 | 77 | 1018.3 |
| 20260506073328 | 14 | 352 | 1.6 | 3.2 | 0.00 | 0.00 | 0.00 | 77 | 1018.0 |
| 20260506072828 | 14 | 350 | 1.6 | 4.8 | 0.00 | 0.00 | 0.00 | 77 | 1017.9 |
| 20260506072328 | 14 | 5 | 1.6 | 3.2 | 0.00 | 0.00 | 0.00 | 76 | 1017.9 |
| 20260506071828 | 14 | 4 | 1.6 | 3.2 | 0.00 | 0.00 | 0.00 | 76 | 1017.9 |
| 20260506071328 | 14 | 31 | 0.0 | 3.2 | 0.00 | 0.00 | 0.00 | 76 | 1017.8 |
| 20260506070328 | 15 | 0 | 1.6 | 3.2 | 0.00 | 0.00 | 0.00 | 76 | 1017.7 |
| 20260506062328 | 15 | 332 | 1.6 | 3.2 | 0.00 | 0.00 | 0.00 | 75 | 1017.5 |
| 20260506061828 | 15 | 31 | 1.6 | 4.8 | 0.00 | 0.00 | 0.00 | 76 | 1017.4 |
| 20260506061327 | 15 | 264 | 0.0 | 3.2 | 0.00 | 0.00 | 0.00 | 76 | 1017.3 |
| 20260506060828 | 15 | 263 | 0.0 | 1.6 | 0.00 | 0.00 | 0.00 | 76 | 1017.3 |
| 20260506060327 | 15 | 263 | 0.0 | 0.0 | 0.00 | 0.00 | 0.00 | 75 | 1017.2 |
| 20260506051327 | 15 | 263 | 0.0 | 1.6 | 0.00 | 0.00 | 0.00 | 74 | 1017.0 |
| 20260506050827 | 15 | 263 | 0.0 | 1.6 | 0.00 | 0.00 | 0.00 | 74 | 1017.0 |
| 20260506050328 | 15 | 263 | 0.0 | 1.6 | 0.00 | 0.00 | 0.00 | 74 | 1017.0 |
| 20260506044828 | 15 | 263 | 0.0 | 0.0 | 0.00 | 0.00 | 0.00 | 73 | 1016.8 |
| 20260506044328 | 15 | 263 | 0.0 | 0.0 | 0.00 | 0.00 | 0.00 | 73 | 1016.8 |
| 20260506043328 | 15 | 265 | 0.0 | 3.2 | 0.00 | 0.00 | 0.00 | 73 | 1016.7 |
| 20260506042828 | 15 | 298 | 0.0 | 3.2 | 0.00 | 0.00 | 0.00 | 73 | 1016.7 |
| 20260506042328 | 15 | 330 | 0.0 | 1.6 | 0.00 | 0.00 | 0.00 | 73 | 1016.6 |
| 20260506041828 | 15 | 330 | 0.0 | 3.2 | 0.00 | 0.00 | 0.00 | 73 | 1016.6 |
| 20260506041328 | 15 | 333 | 0.0 | 0.0 | 0.00 | 0.00 | 0.00 | 73 | 1016.5 |
| 20260506040828 | 15 | 333 | 0.0 | 1.6 | 0.00 | 0.00 | 0.00 | 73 | 1016.3 |
| 20260506040328 | 15 | 333 | 0.0 | 0.0 | 0.00 | 0.00 | 0.00 | 72 | 1016.3 |
| 20260506035828 | 15 | 333 | 0.0 | 1.6 | 0.00 | 0.00 | 0.00 | 72 | 1016.3 |
| 20260506035328 | 15 | 333 | 0.0 | 1.6 | 0.00 | 0.00 | 0.00 | 72 | 1016.3 |
| 20260506034828 | 15 | 324 | 0.0 | 3.2 | 0.00 | 0.00 | 0.00 | 72 | 1016.2 |
| 20260506034328 | 15 | 306 | 0.0 | 3.2 | 0.00 | 0.00 | 0.00 | 72 | 1016.1 |